Location: ???????
(55.4362°N, 38.1183°E)
Time: 18:30:43
(UTC+00:00)

Cosmos 2278 Rocket - Pass Details

Date: 25 October 2021
Orbit: 841 x 845 km, 71.0° (Epoch: 28 November)

Event Time Altitude Azimuth Distance (km) Brightness Sun altitude
Rises 17:30:40 0° 325° (NW) 3,419 6.2 -29.5°
Reaches altitude 10° 17:33:08 10° 323° (NW) 2,479 5.3 -29.8°
Enters shadow 17:38:23 66° 269° (W) 921 2.4 -30.5°
